Weather History for LICZ - February, 2013

Change the Weather History Date:

Wednesday, February 20, 2013

  Actual Average Record
Temperature  
Mean Temperature 46 °F -  
Max Temperature 59 °F 63 °F 64 °F (2002)
Min Temperature 33 °F 43 °F 33 °F (2013)
Degree Days  
Heating Degree Days 19    
Moisture  
Dew Point 44 °F    
Average Humidity 85    
Maximum Humidity 100    
Minimum Humidity 48    
Precipitation  
Precipitation 0.00 in 0.05 in - ()
Sea Level Pressure  
Sea Level Pressure 29.96 in    
Wind  
Wind Speed 7 mph ()    
Max Wind Speed 12 mph    
Max Gust Speed -    
Visibility 4.6 miles    
Events      
Averages and records for this station are not official NWS values.
T = Trace of Precipitation, MM = Missing Value Source: Averaged Metar Reports

Daily Weather History Graph

Daily Weather History Graph

Search for Another Location

Airport or City:

Trip Planner

Search our weather history database for the weather conditions in past years. The results will help you decide how hot, cold, wet, or windy it might be!

Date:

Astronomy

Feb. 20, 2013 Rise Set
Actual Time 6:43 AM CET 5:45 PM CET
Civil Twilight 6:16 AM CET 6:11 PM CET
Nautical Twilight 5:46 AM CET 6:42 PM CET
Astronomical Twilight 5:16 AM CET 7:12 PM CET
Moon 12:55 PM CET (2/20) 2:46 AM CET (2/20)
Length of Visible Light 11h 54m
Length of Day
11h 01m
Waxing Gibbous, 74% of the Moon is Illuminated
Feb 20
Waxing Gibbous
Feb 25
Full
Mar 4
Last Quarter
Mar 11
New
Mar 19
First Quarter

Hourly Weather History & Observations

Time (CET) Temp. Windchill Dew Point Humidity Pressure Visibility Wind Dir Wind Speed Gust Speed Precip Events Conditions
1:55 AM 41.0 °F 36.4 °F 41.0 °F 100% 30.01 in 6.2 mi West 6.9 mph - N/A   Scattered Clouds
2:55 AM 41.0 °F 36.4 °F 41.0 °F 100% 30.04 in 6.2 mi WNW 6.9 mph - N/A   Scattered Clouds
3:55 AM 41.0 °F 37.1 °F 41.0 °F 100% 30.01 in 6.2 mi WNW 5.8 mph - N/A   Scattered Clouds
4:00 AM 40 °F - 40 °F 100% 30.04 in 6 mi WNW 5.8 mph - -   Partly Cloudy
4:55 AM 37.4 °F 32.1 °F 37.4 °F 100% 30.01 in 6.2 mi WSW 6.9 mph - N/A   Scattered Clouds
5:55 AM 37.4 °F 32.8 °F 37.4 °F 100% 30.01 in 6.2 mi West 5.8 mph - N/A   Scattered Clouds
6:19 AM 33.8 °F 30.8 °F 33.8 °F 100% 30.01 in 6.2 mi West 3.5 mph - N/A   Scattered Clouds
6:55 AM 33.8 °F 28.6 °F 33.8 °F 100% 30.01 in 6.2 mi West 5.8 mph - N/A   Scattered Clouds
7:55 AM 33.8 °F 30.8 °F 33.8 °F 100% 30.04 in 3.1 mi WNW 3.5 mph - N/A   Scattered Clouds
8:55 AM 39.2 °F 37.0 °F 39.2 °F 100% 30.04 in 2.5 mi WNW 3.5 mph - N/A   Scattered Clouds
9:55 AM 48.2 °F - 46.4 °F 93% 30.04 in 3.1 mi NW 4.6 mph - N/A   Scattered Clouds
10:55 AM 51.8 °F - 42.8 °F 71% 30.04 in 2.5 mi ENE 3.5 mph - N/A   Scattered Clouds
11:55 AM 57.2 °F - 42.8 °F 59% 30.01 in 2.5 mi ENE 8.1 mph - N/A   Scattered Clouds
12:55 PM 59.0 °F - 42.8 °F 55% 29.98 in 3.1 mi SE 9.2 mph - N/A   Mostly Cloudy
1:00 PM 58 °F - 44 °F 48% 30.00 in 3 mi SE 9.2 mph - -   Mist
1:55 PM 57.2 °F - 44.6 °F 63% 29.95 in 3.1 mi East 10.4 mph - N/A   Scattered Clouds
2:55 PM 55.4 °F - 44.6 °F 67% 29.95 in 3.7 mi East 11.5 mph - N/A   Scattered Clouds
3:55 PM 55.4 °F - 46.4 °F 72% 29.92 in 3.7 mi East 10.4 mph - N/A   Scattered Clouds
4:00 PM 56 °F - 47 °F 64% 29.94 in 4 mi East 10.4 mph - -   Mist
4:55 PM 55.4 °F - 48.2 °F 77% 29.92 in 3.7 mi East 10.4 mph - N/A   Scattered Clouds
5:55 PM 55.4 °F - 48.2 °F 77% 29.92 in 3.7 mi ENE 10.4 mph - N/A   Scattered Clouds
6:55 PM 53.6 °F - 50.0 °F 88% 29.89 in 3.7 mi ENE 11.5 mph - N/A   Scattered Clouds
7:00 PM 54 °F - 50 °F 80% 29.91 in 4 mi ENE 11.5 mph - -   Mist
7:55 PM 53.6 °F - 50.0 °F 88% 29.89 in 5.0 mi ENE 5.8 mph - N/A   Mostly Cloudy
8:55 PM 53.6 °F - 50.0 °F 88% 29.89 in 5.0 mi ENE 9.2 mph - N/A   Mostly Cloudy
9:55 PM 53.6 °F - 50.0 °F 88% 29.86 in 6.2 mi ENE 11.5 mph - N/A   Mostly Cloudy
10:00 PM 53 °F - 50 °F 87% 29.88 in 6 mi ENE 11.5 mph - -   Overcast
10:55 PM 53.6 °F - 51.8 °F 94% 29.86 in 6.2 mi ENE 9.2 mph - N/A   Mostly Cloudy
11:55 PM 53.6 °F - 51.8 °F 94% 29.83 in 6.2 mi ENE 11.5 mph - N/A   Mostly Cloudy